K5RG-3 Weather Reports


time (UTC)temp
F
wind
direction
speed
knots
gust
knots
rain 1hr
in
rain 24hr
in
rain mn
in
humidity
%
barometer
mb
20260901231512 83 345 2.6 6.1 0.00 0.02 0.02 82 1010.6
20260901230014 83 315 1.7 6.1 0.00 0.02 0.02 84 1010.7
20260901224511 84 335 1.7 7.8 0.00 0.02 0.02 83 1011.0
20260901223012 84 319 2.6 8.7 0.00 0.02 0.02 82 1010.8
20260901221534 84 318 2.6 7.0 0.00 0.02 0.02 83 1010.8
20260901220013 84 278 2.6 7.8 0.00 0.02 0.02 83 1010.6
20260901214507 84 278 2.6 6.1 0.00 0.02 0.02 82 1010.9
20260901213005 84 300 2.6 7.0 0.00 0.02 0.02 81 1011.2
20260901211506 85 305 1.7 6.1 0.00 0.02 0.02 80 1011.4
20260901210009 84 252 1.7 6.1 0.00 0.06 0.02 81 1011.4
20260901204508 84 252 3.5 7.8 0.00 0.06 0.02 81 1011.2
20260901203004 84 308 3.5 7.8 0.00 0.06 0.02 82 1011.1
20260901201506 83 277 4.3 8.7 0.00 0.06 0.02 82 1011.2
20260901200100 83 263 2.6 7.0 0.01 0.06 0.02 82 1011.5
20260901194556 82 331 3.5 7.0 0.01 0.06 0.02 82 1012.0
20260901193106 82 261 3.5 7.0 0.01 0.06 0.02 83 1012.1
20260901191554 82 279 2.6 7.0 0.01 0.06 0.02 84 1012.2
20260901190054 83 311 1.7 3.5 0.00 0.05 0.01 83 1012.5
20260901184557 83 345 1.7 3.5 0.00 0.05 0.01 84 1012.7
20260901183056 83 307 1.7 5.2 0.00 0.05 0.01 83 1012.7
20260901181553 83 348 2.6 6.1 0.01 0.05 0.01 82 1012.8
20260901180052 83 340 3.5 7.8 0.01 0.05 0.01 83 1012.8
20260901174553 83 346 2.6 7.0 0.01 0.05 0.01 83 1013.0
20260901173050 83 293 1.7 4.3 0.01 0.05 0.01 83 1013.3
20260901171557 83 344 1.7 5.2 0.00 0.04 0.00 82 1013.6
20260901170050 84 352 0.9 6.1 0.00 0.04 0.00 81 1014.0
20260901164549 85 344 2.6 7.8 0.00 0.04 0.00 78 1014.0
20260901163050 85 352 1.7 7.0 0.00 0.04 0.00 78 1014.1
20260901161548 86 36 0.9 7.0 0.00 0.04 0.00 78 1014.1
20260901160056 86 360 2.6 8.7 0.00 0.04 0.00 78 1014.0
20260901154544 85 9 1.7 7.0 0.00 0.04 0.00 79 1013.8
20260901153042 85 25 2.6 7.8 0.00 0.04 0.00 79 1013.6
20260901151539 84 25 3.5 7.0 0.00 0.04 0.00 80 1013.6
20260901150036 84 352 2.6 7.8 0.00 0.04 0.00 81 1013.5
20260901144531 84 34 1.7 6.1 0.00 0.04 0.00 82 1013.5
20260901143031 83 331 2.6 6.1 0.00 0.04 0.00 82 1013.5
20260901141527 83 352 2.6 7.0 0.00 0.04 0.00 83 1013.6
20260901140023 82 329 2.6 6.1 0.00 0.04 0.00 85 1013.5
20260901134534 82 325 2.6 6.1 0.00 0.04 0.00 85 1013.3
20260901133019 82 325 1.7 5.2 0.00 0.04 0.00 86 1013.5
20260901131517 81 344 0.9 6.1 0.00 0.04 0.00 87 1013.4
20260901130015 81 338 0.9 5.2 0.00 0.04 0.00 87 1013.2
20260901124511 81 346 1.7 5.2 0.00 0.04 0.00 88 1013.1
20260901123012 81 46 0.9 2.6 0.00 0.04 0.00 88 1013.0
20260901121512 81 344 0.0 2.6 0.00 0.04 0.00 88 1012.7
20260901120007 81 336 0.9 3.5 0.00 0.04 0.00 88 1012.5
20260901114508 81 27 0.9 2.6 0.00 0.04 0.00 88 1012.5
20260901113013 82 27 0.9 2.6 0.00 0.04 0.00 88 1012.7
20260901111504 81 323 0.0 0.0 0.00 0.04 0.00 89 1012.5
20260901110004 81 309 1.7 4.3 0.00 0.04 0.00 89 1012.4
20260901104501 81 334 1.7 4.3 0.00 0.04 0.00 89 1012.3
20260901103105 81 317 0.0 1.7 0.00 0.04 0.00 89 1012.4
20260901101615 81 333 0.9 2.6 0.00 0.04 0.00 89 1012.4
20260901100114 81 331 0.9 3.5 0.00 0.04 0.00 88 1012.3
20260901094558 81 326 1.7 2.6 0.00 0.04 0.00 88 1012.5
20260901093056 81 327 1.7 3.5 0.00 0.04 0.00 89 1012.5
20260901091556 81 301 0.9 3.5 0.00 0.04 0.00 89 1012.6
20260901090101 81 298 0.9 2.6 0.00 0.04 0.00 89 1012.7
20260901084559 81 279 2.6 3.5 0.00 0.04 0.00 89 1012.7
20260901083054 81 273 0.9 2.6 0.00 0.04 0.00 89 1012.7
20260901081557 81 275 0.0 0.0 0.00 0.04 0.00 89 1012.6
20260901080053 81 122 0.0 0.0 0.00 0.04 0.00 88 1012.7
20260901074550 81 122 0.0 0.0 0.00 0.04 0.00 88 1012.7
20260901073151 81 122 0.0 0.0 0.00 0.04 0.00 88 1012.7
20260901071546 82 122 0.0 0.0 0.00 0.04 0.00 87 1012.8
20260901070057 82 122 0.0 0.0 0.00 0.04 0.00 87 1013.0
20260901064545 82 122 0.0 0.0 0.00 0.04 0.00 86 1012.9
20260901063047 82 122 0.0 0.0 0.00 0.04 0.00 86 1012.8
20260901061542 82 122 0.0 0.0 0.00 0.04 0.00 86 1012.9
20260901060045 82 122 0.0 0.0 0.00 0.04 0.00 86 1013.2
20260901054541 82 122 0.0 0.0 0.00 0.04 0.00 86 1013.1
20260901053102 82 122 0.0 1.7 0.00 0.04 0.00 85 1013.0
20260901051538 82 122 0.0 0.9 0.00 0.04 0.00 85 1013.0
20260901050037 82 122 0.0 0.9 0.00 0.04 0.00 86 1013.0
20260901044554 82 122 0.0 0.0 0.00 0.04 0.04 85 1012.8
20260901043040 82 122 0.0 0.0 0.00 0.04 0.04 85 1013.0
20260901041536 83 122 0.0 0.0 0.00 0.04 0.04 84 1013.0
20260901040036 83 122 0.0 0.0 0.00 0.04 0.04 84 1012.9
20260901034541 83 122 0.0 0.9 0.00 0.04 0.04 84 1012.9
20260901033041 83 122 0.0 0.0 0.00 0.04 0.04 84 1012.9
20260901031544 84 122 0.0 0.0 0.00 0.04 0.04 84 1012.9
20260901030034 84 122 0.0 0.0 0.00 0.04 0.04 83 1012.7
20260901024536 85 122 0.0 0.0 0.00 0.04 0.04 82 1012.5
20260901023039 85 201 0.0 0.0 0.00 0.04 0.04 82 1012.2
20260901021538 85 201 0.0 0.0 0.00 0.04 0.04 82 1012.1
20260901020054 85 201 0.0 0.0 0.00 0.04 0.04 82 1011.9
20260901014531 85 201 0.0 0.0 0.00 0.04 0.04 81 1011.7
20260901013030 86 201 0.0 0.0 0.00 0.04 0.04 80 1011.7
20260901011537 86 201 0.0 0.0 0.00 0.04 0.04 79 1011.8
20260901010029 87 201 0.0 0.0 0.00 0.04 0.04 77 1011.6
20260901004528 87 201 0.0 0.0 0.00 0.04 0.04 77 1011.7
20260901003030 87 182 0.0 0.9 0.00 0.04 0.04 76 1011.8
20260901001528 88 209 0.0 1.7 0.00 0.04 0.04 75 1011.8
20260901000026 88 226 0.0 1.7 0.00 0.04 0.04 75 1011.7
20260831234526 88 212 0.0 0.9 0.00 0.04 0.04 74 1011.7
20260831233035 88 169 0.0 0.0 0.00 0.04 0.04 73 1011.8